Time,TemperatureF,DewpointF,PressureIn,WindDirection,WindDirectionDegrees,WindSpeedMPH,WindSpeedGustMPH,Humidity,HourlyPrecipIn,Conditions,Clouds,dailyrainin,SolarRadiationWatts/m^2,SoftwareType,DateUTC
2013-03-08 00:01:00,28.0,26.0,30.29,WNW,291,0.0,0.0,91,0.00,,,0.00,0,weatherlink.com 1.10,2013-03-08 05:01:00,
2013-03-08 00:16:00,27.5,25.0,30.29,WNW,291,1.0,1.0,91,0.00,,,0.00,0,weatherlink.com 1.10,2013-03-08 05:16:00,
2013-03-08 00:31:00,26.8,24.0,30.29,WNW,291,0.0,2.0,90,0.00,,,0.00,0,weatherlink.com 1.10,2013-03-08 05:31:00,
2013-03-08 00:46:00,26.5,25.0,30.28,WNW,291,0.0,0.0,92,0.00,,,0.00,0,weatherlink.com 1.10,2013-03-08 05:46:00,
2013-03-08 01:01:00,26.3,24.0,30.29,WNW,291,0.0,0.0,92,0.00,,,0.00,0,weatherlink.com 1.10,2013-03-08 06:01:00,
2013-03-08 01:16:00,26.2,25.0,30.29,WNW,291,0.0,0.0,93,0.00,,,0.00,0,weatherlink.com 1.10,2013-03-08 06:16:00,
2013-03-08 01:31:00,25.7,24.0,30.30,WNW,291,0.0,0.0,92,0.00,,,0.00,0,weatherlink.com 1.10,2013-03-08 06:31:00,
2013-03-08 01:46:00,25.3,23.0,30.30,WNW,291,0.0,0.0,92,0.00,,,0.00,0,weatherlink.com 1.10,2013-03-08 06:46:00,
2013-03-08 02:01:00,25.2,24.0,30.30,WNW,291,0.0,0.0,94,0.00,,,0.00,0,weatherlink.com 1.10,2013-03-08 07:01:00,
2013-03-08 02:16:00,25.4,24.0,30.30,WNW,291,0.0,0.0,94,0.00,,,0.00,0,weatherlink.com 1.10,2013-03-08 07:16:00,
2013-03-08 02:31:00,24.9,23.0,30.29,WNW,291,0.0,0.0,93,0.00,,,0.00,0,weatherlink.com 1.10,2013-03-08 07:31:00,
2013-03-08 02:46:00,24.7,23.0,30.29,WNW,291,0.0,0.0,93,0.00,,,0.00,0,weatherlink.com 1.10,2013-03-08 07:46:00,
2013-03-08 03:01:00,24.6,23.0,30.29,WNW,291,0.0,0.0,93,0.00,,,0.00,0,weatherlink.com 1.10,2013-03-08 08:01:00,
2013-03-08 03:16:00,24.9,24.0,30.29,WNW,291,0.0,0.0,94,0.00,,,0.00,0,weatherlink.com 1.10,2013-03-08 08:16:00,
2013-03-08 03:31:00,24.4,23.0,30.30,WNW,291,0.0,0.0,93,0.00,,,0.00,0,weatherlink.com 1.10,2013-03-08 08:31:00,
2013-03-08 03:46:00,24.3,23.0,30.30,WNW,291,0.0,0.0,93,0.00,,,0.00,0,weatherlink.com 1.10,2013-03-08 08:46:00,
2013-03-08 04:01:00,25.0,24.0,30.30,WNW,291,0.0,1.0,94,0.00,,,0.00,0,weatherlink.com 1.10,2013-03-08 09:01:00,
2013-03-08 04:16:00,26.3,25.0,30.30,WNW,291,0.0,2.0,95,0.00,,,0.00,0,weatherlink.com 1.10,2013-03-08 09:16:00,
2013-03-08 04:31:00,26.9,25.0,30.30,WNW,291,0.0,3.0,94,0.00,,,0.00,0,weatherlink.com 1.10,2013-03-08 09:31:00,
2013-03-08 04:46:00,27.4,26.0,30.30,WNW,291,0.0,0.0,95,0.00,,,0.00,0,weatherlink.com 1.10,2013-03-08 09:46:00,
2013-03-08 05:01:00,27.9,26.0,30.30,WNW,291,0.0,2.0,94,0.00,,,0.00,0,weatherlink.com 1.10,2013-03-08 10:01:00,
2013-03-08 05:16:00,28.2,27.0,30.31,WNW,291,0.0,3.0,94,0.00,,,0.00,0,weatherlink.com 1.10,2013-03-08 10:16:00,
2013-03-08 05:31:00,28.3,27.0,30.31,NNE,18,0.0,2.0,95,0.00,,,0.00,0,weatherlink.com 1.10,2013-03-08 10:31:00,
2013-03-08 05:46:00,28.1,27.0,30.32,NE,51,1.0,2.0,95,0.00,,,0.00,0,weatherlink.com 1.10,2013-03-08 10:46:00,
2013-03-08 06:01:00,27.8,27.0,30.32,NE,51,0.0,0.0,95,0.00,,,0.00,0,weatherlink.com 1.10,2013-03-08 11:01:00,
2013-03-08 06:16:00,27.9,27.0,30.32,ENE,65,2.0,3.0,95,0.00,,,0.00,0,weatherlink.com 1.10,2013-03-08 11:16:00,
2013-03-08 06:31:00,27.8,27.0,30.32,East,98,0.0,3.0,95,0.00,,,0.00,0,weatherlink.com 1.10,2013-03-08 11:31:00,
2013-03-08 06:46:00,27.5,26.0,30.33,East,98,1.0,2.0,95,0.00,,,0.00,0,weatherlink.com 1.10,2013-03-08 11:46:00,
2013-03-08 07:01:00,27.5,26.0,30.33,East,98,1.0,3.0,95,0.00,,,0.00,0,weatherlink.com 1.10,2013-03-08 12:01:00,
2013-03-08 07:16:00,27.7,27.0,30.34,East,98,1.0,2.0,95,0.00,,,0.00,9,weatherlink.com 1.10,2013-03-08 12:16:00,
2013-03-08 07:31:00,27.9,27.0,30.34,East,94,1.0,3.0,95,0.00,,,0.00,19,weatherlink.com 1.10,2013-03-08 12:31:00,
2013-03-08 07:46:00,27.9,27.0,30.34,East,94,1.0,3.0,95,0.00,,,0.00,35,weatherlink.com 1.10,2013-03-08 12:46:00,
2013-03-08 08:01:00,27.8,27.0,30.35,East,90,1.0,3.0,95,0.00,,,0.00,42,weatherlink.com 1.10,2013-03-08 13:01:00,
2013-03-08 08:16:00,28.3,27.0,30.36,ENE,64,1.0,5.0,96,0.00,,,0.00,63,weatherlink.com 1.10,2013-03-08 13:16:00,
2013-03-08 08:31:00,28.8,28.0,30.36,ENE,57,2.0,4.0,96,0.00,,,0.00,74,weatherlink.com 1.10,2013-03-08 13:31:00,
2013-03-08 08:46:00,28.8,28.0,30.36,East,95,1.0,3.0,96,0.00,,,0.00,114,weatherlink.com 1.10,2013-03-08 13:46:00,
2013-03-08 09:02:00,29.3,28.0,30.36,NE,51,1.0,3.0,96,0.00,,,0.00,216,weatherlink.com 1.10,2013-03-08 14:02:00,
2013-03-08 09:17:00,29.9,29.0,30.36,NNE,30,2.0,4.0,96,0.00,,,0.00,221,weatherlink.com 1.10,2013-03-08 14:17:00,
2013-03-08 09:32:00,30.3,29.0,30.36,NNE,16,1.0,3.0,96,0.00,,,0.00,236,weatherlink.com 1.10,2013-03-08 14:32:00,
2013-03-08 09:47:00,31.4,30.0,30.36,NNW,336,1.0,5.0,96,0.00,,,0.00,262,weatherlink.com 1.10,2013-03-08 14:47:00,
2013-03-08 10:02:00,33.1,32.0,30.36,NNE,26,3.0,4.0,95,0.00,,,0.00,540,weatherlink.com 1.10,2013-03-08 15:02:00,
2013-03-08 10:17:00,34.7,32.0,30.35,NW,325,0.0,5.0,91,0.00,,,0.00,606,weatherlink.com 1.10,2013-03-08 15:17:00,
2013-03-08 10:32:00,36.2,32.0,30.34,ENE,66,2.0,4.0,86,0.00,,,0.00,640,weatherlink.com 1.10,2013-03-08 15:32:00,
2013-03-08 10:47:00,37.9,33.0,30.34,NNE,24,2.0,5.0,81,0.00,,,0.00,671,weatherlink.com 1.10,2013-03-08 15:47:00,
2013-03-08 11:02:00,39.6,34.0,30.34,North,5,0.0,4.0,79,0.00,,,0.00,703,weatherlink.com 1.10,2013-03-08 16:02:00,
2013-03-08 11:17:00,41.1,33.0,30.33,North,5,0.0,5.0,74,0.00,,,0.00,728,weatherlink.com 1.10,2013-03-08 16:17:00,
2013-03-08 11:32:00,42.6,34.0,30.33,NNE,17,3.0,5.0,71,0.00,,,0.00,751,weatherlink.com 1.10,2013-03-08 16:32:00,
2013-03-08 11:47:00,44.3,34.0,30.32,North,350,5.0,7.0,66,0.00,,,0.00,766,weatherlink.com 1.10,2013-03-08 16:47:00,
2013-03-08 12:02:00,46.6,33.0,30.31,NNW,347,3.0,8.0,59,0.00,,,0.00,784,weatherlink.com 1.10,2013-03-08 17:02:00,
2013-03-08 12:17:00,48.3,32.0,30.31,NNE,24,5.0,8.0,53,0.00,,,0.00,793,weatherlink.com 1.10,2013-03-08 17:17:00,
2013-03-08 12:32:00,50.2,33.0,30.31,SW,229,2.0,6.0,52,0.00,,,0.00,800,weatherlink.com 1.10,2013-03-08 17:32:00,
2013-03-08 12:48:00,52.4,31.0,30.30,WNW,294,3.0,7.0,44,0.00,,,0.00,809,weatherlink.com 1.10,2013-03-08 17:48:00,
2013-03-08 13:03:00,53.4,27.0,30.30,SW,236,3.0,8.0,36,0.00,,,0.00,807,weatherlink.com 1.10,2013-03-08 18:03:00,
2013-03-08 13:18:00,54.4,25.0,30.29,SW,234,6.0,8.0,32,0.00,,,0.00,802,weatherlink.com 1.10,2013-03-08 18:18:00,
2013-03-08 13:33:00,56.2,27.0,30.29,NW,321,3.0,8.0,32,0.00,,,0.00,789,weatherlink.com 1.10,2013-03-08 18:33:00,
2013-03-08 13:48:00,56.4,26.0,30.28,WNW,300,6.0,10.0,31,0.00,,,0.00,777,weatherlink.com 1.10,2013-03-08 18:48:00,
2013-03-08 14:03:00,56.6,24.0,30.27,NW,323,0.0,6.0,28,0.00,,,0.00,763,weatherlink.com 1.10,2013-03-08 19:03:00,
2013-03-08 14:18:00,56.7,23.0,30.27,WNW,297,5.0,10.0,27,0.00,,,0.00,740,weatherlink.com 1.10,2013-03-08 19:18:00,
2013-03-08 14:33:00,57.1,23.0,30.27,NW,315,2.0,8.0,27,0.00,,,0.00,714,weatherlink.com 1.10,2013-03-08 19:33:00,
2013-03-08 14:48:00,57.9,24.0,30.26,WNW,288,3.0,8.0,27,0.00,,,0.00,684,weatherlink.com 1.10,2013-03-08 19:48:00,
2013-03-08 15:03:00,58.9,24.0,30.26,WNW,292,6.0,9.0,26,0.00,,,0.00,652,weatherlink.com 1.10,2013-03-08 20:03:00,
2013-03-08 15:18:00,58.8,23.0,30.25,NW,321,2.0,6.0,25,0.00,,,0.00,613,weatherlink.com 1.10,2013-03-08 20:18:00,
2013-03-08 15:33:00,59.1,23.0,30.24,WSW,257,3.0,7.0,25,0.00,,,0.00,575,weatherlink.com 1.10,2013-03-08 20:33:00,
2013-03-08 15:48:00,59.5,22.0,30.24,West,277,3.0,8.0,24,0.00,,,0.00,529,weatherlink.com 1.10,2013-03-08 20:48:00,
2013-03-08 16:03:00,60.0,24.0,30.24,WNW,293,4.0,8.0,25,0.00,,,0.00,487,weatherlink.com 1.10,2013-03-08 21:03:00,
2013-03-08 16:18:00,60.8,25.0,30.23,WSW,242,3.0,8.0,25,0.00,,,0.00,438,weatherlink.com 1.10,2013-03-08 21:18:00,
2013-03-08 16:33:00,60.7,24.0,30.23,West,261,3.0,9.0,24,0.00,,,0.00,388,weatherlink.com 1.10,2013-03-08 21:33:00,
2013-03-08 16:48:00,60.3,26.0,30.23,SW,236,6.0,11.0,27,0.00,,,0.00,338,weatherlink.com 1.10,2013-03-08 21:48:00,
2013-03-08 17:03:00,60.1,25.0,30.23,WSW,240,6.0,8.0,26,0.00,,,0.00,283,weatherlink.com 1.10,2013-03-08 22:03:00,
2013-03-08 17:18:00,59.8,24.0,30.23,SSW,200,5.0,8.0,25,0.00,,,0.00,221,weatherlink.com 1.10,2013-03-08 22:18:00,
2013-03-08 17:33:00,59.8,25.0,30.24,WSW,248,4.0,6.0,26,0.00,,,0.00,153,weatherlink.com 1.10,2013-03-08 22:33:00,
2013-03-08 17:48:00,59.7,24.0,30.24,SW,233,2.0,8.0,25,0.00,,,0.00,95,weatherlink.com 1.10,2013-03-08 22:48:00,
2013-03-08 18:04:00,58.6,17.0,30.25,West,275,2.0,5.0,20,0.00,,,0.00,25,weatherlink.com 1.10,2013-03-08 23:04:00,
2013-03-08 18:18:00,56.9,17.0,30.26,West,281,3.0,6.0,21,0.00,,,0.00,19,weatherlink.com 1.10,2013-03-08 23:18:00,
2013-03-08 18:33:00,55.3,19.0,30.26,WSW,254,4.0,7.0,24,0.00,,,0.00,9,weatherlink.com 1.10,2013-03-08 23:33:00,
2013-03-08 18:48:00,53.4,24.0,30.27,WNW,283,2.0,7.0,32,0.00,,,0.00,0,weatherlink.com 1.10,2013-03-08 23:48:00,
2013-03-08 19:03:00,52.0,25.0,30.27,NNW,327,0.0,6.0,35,0.00,,,0.00,0,weatherlink.com 1.10,2013-03-09 00:03:00,
2013-03-08 19:18:00,50.7,25.0,30.27,NNW,327,0.0,3.0,37,0.00,,,0.00,0,weatherlink.com 1.10,2013-03-09 00:18:00,
2013-03-08 19:33:00,47.4,27.0,30.27,NE,50,0.0,2.0,45,0.00,,,0.00,0,weatherlink.com 1.10,2013-03-09 00:33:00,
2013-03-08 19:48:00,45.0,27.0,30.27,NE,50,0.0,2.0,50,0.00,,,0.00,0,weatherlink.com 1.10,2013-03-09 00:48:00,
2013-03-08 20:03:00,42.8,27.0,30.28,NNW,345,0.0,2.0,55,0.00,,,0.00,0,weatherlink.com 1.10,2013-03-09 01:03:00,
2013-03-08 20:18:00,42.3,26.0,30.29,West,279,0.0,3.0,53,0.00,,,0.00,0,weatherlink.com 1.10,2013-03-09 01:18:00,
2013-03-08 20:33:00,42.5,28.0,30.29,North,355,0.0,2.0,57,0.00,,,0.00,0,weatherlink.com 1.10,2013-03-09 01:33:00,
2013-03-08 20:48:00,40.0,29.0,30.29,NE,39,0.0,0.0,64,0.00,,,0.00,0,weatherlink.com 1.10,2013-03-09 01:48:00,
2013-03-08 21:03:00,38.8,28.0,30.29,NE,39,0.0,0.0,66,0.00,,,0.00,0,weatherlink.com 1.10,2013-03-09 02:03:00,
2013-03-08 21:18:00,38.0,29.0,30.29,NE,39,0.0,1.0,69,0.00,,,0.00,0,weatherlink.com 1.10,2013-03-09 02:18:00,
2013-03-08 21:33:00,37.5,29.0,30.30,NE,39,0.0,2.0,70,0.00,,,0.00,0,weatherlink.com 1.10,2013-03-09 02:33:00,
2013-03-08 21:48:00,36.6,29.0,30.30,NE,39,0.0,1.0,73,0.00,,,0.00,0,weatherlink.com 1.10,2013-03-09 02:48:00,
2013-03-08 22:03:00,35.7,28.0,30.30,NE,39,0.0,0.0,74,0.00,,,0.00,0,weatherlink.com 1.10,2013-03-09 03:03:00,
2013-03-08 22:18:00,35.0,28.0,30.31,NE,39,0.0,0.0,76,0.00,,,0.00,0,weatherlink.com 1.10,2013-03-09 03:18:00,
2013-03-08 22:33:00,34.5,28.0,30.30,NE,39,0.0,1.0,77,0.00,,,0.00,0,weatherlink.com 1.10,2013-03-09 03:33:00,
2013-03-08 22:48:00,33.6,28.0,30.30,NE,39,0.0,0.0,80,0.00,,,0.00,0,weatherlink.com 1.10,2013-03-09 03:48:00,
2013-03-08 23:03:00,33.6,28.0,30.30,East,97,2.0,5.0,80,0.00,,,0.00,0,weatherlink.com 1.10,2013-03-09 04:03:00,
2013-03-08 23:18:00,33.5,28.0,30.30,East,97,1.0,2.0,80,0.00,,,0.00,0,weatherlink.com 1.10,2013-03-09 04:18:00,
2013-03-08 23:34:00,32.7,28.0,30.30,East,97,0.0,2.0,81,0.00,,,0.00,0,weatherlink.com 1.10,2013-03-09 04:34:00,
2013-03-08 23:49:00,31.6,27.0,30.30,East,97,0.0,0.0,83,0.00,,,0.00,0,weatherlink.com 1.10,2013-03-09 04:49:00,